Location: �quirre
(50.4736°N, 2.2351°E)
Time: 06:28:22
(UTC+00:00)

CZ-2D R/B - Pass Details

Date: 07 August 2020
Orbit: 792 x 845 km, 98.7° (Epoch: 23 September)

Event Time Altitude Azimuth Distance (km) Brightness Sun altitude
Rises 02:08:33 0° 12° (NNE) 3,408 6.7 -17.2°
Reaches altitude 10° 02:10:57 10° 9° (N) 2,473 5.6 -17.0°
Maximum altitude 02:16:20 59° 291° (WNW) 972 2.4 -16.5°
Enters shadow 02:19:23 26° 221° (SW) 1,615 3.1 -16.2°
